Location: Watson Lake
(60.1170°N, 128.8000°W)
Time: 00:58:45
(UTC-07:00)

Daily predictions for brighter satellites

Satellite Brightness Start Highest point End
(mag) Time Altitude Azimuth Time Altitude Azimuth Time Altitude Azimuth
CZ-4B R/B 3.9 00:06:14 10° E 00:07:45 13° NE 00:09:16 10° NNE
Cosmos 1626 Rocket 4.0 00:03:57 10° NNW 00:08:12 55° W 00:11:06 19° S
DNEPR-1 R/B 3.5 00:05:12 10° WNW 00:09:27 78° SW 00:12:29 21° SE
GP-B 3.3 00:05:16 10° N 00:09:43 70° W 00:13:00 18° SSW
Cosmos 2237 Rocket 3.6 00:08:31 18° SE 00:10:31 21° ESE 00:14:38 10° NE
Cosmos 1666 2.7 00:09:24 24° S 00:11:38 71° E 00:15:31 10° NNE
Cosmos 1302 Rocket 4.1 00:08:03 15° SSW 00:12:22 63° ESE 00:17:36 10° NE
COSMOS 2455 2.9 00:07:14 10° NW 00:13:19 83° NE 00:18:22 15° SE
SL-24 R/B 4.5 00:09:24 10° N 00:14:36 69° E 00:17:39 23° S
CZ-2C R/B 2.8 00:12:38 23° SSE 00:15:37 85° ENE 00:20:29 10° NNW
Cosmos 1743 2.7 00:13:11 20° SSW 00:15:43 85° WNW 00:19:34 10° NNE
Cosmos 2297 3.7 00:14:35 10° NW 00:20:17 86° NE 00:24:18 20° SE
Cosmos 1110 Rocket 4.1 00:15:10 10° SW 00:20:22 78° NW 00:25:36 10° NNE
PSLV R/B 4.2 00:22:09 23° SW 00:23:10 31° W 00:25:41 10° NNW
ATLAS 3B R/B 4.3 00:20:58 10° WNW 00:25:43 21° WSW 00:30:01 11° SSW
Aureole 2 Rocket 3.1 00:26:26 32° SE 00:27:06 35° ESE 00:30:06 10° NE
CZ-4C R/B 3.7 00:27:43 25° SSW 00:29:30 46° W 00:32:55 10° NNW
Cosmos 968 Rocket 3.5 00:24:29 10° NW 00:29:38 69° WSW 00:32:37 25° SSE
Cosmos 1825 Rocket 3.5 00:26:38 10° NNW 00:31:01 84° WSW 00:33:18 27° S
RESURS DK-1 4.4 00:32:08 13° ESE 00:32:27 13° ESE 00:34:25 10° ENE
Cosmos 1271 Rocket 4.4 00:31:51 18° ESE 00:33:00 21° E 00:35:52 10° NE
Cosmos 1544 Rocket 4.4 00:29:39 11° SW 00:33:53 49° WNW 00:38:14 10° N
Meteor 2-5 Rocket 4.0 00:28:18 10° NNW 00:34:09 70° ENE 00:38:01 22° SSE
Cosmos 1818 4.3 00:32:11 24° SSE 00:34:30 34° SE 00:39:23 10° ENE
Cosmos 2058 Rocket 4.4 00:33:04 20° SE 00:34:56 27° E 00:38:40 10° NNE
NOSS 2-3 (D) 4.1 00:29:47 10° SW 00:34:57 77° SE 00:41:23 10° ENE
USA 81 4.3 00:29:45 10° NNW 00:35:00 64° W 00:38:30 21° SSW
Cosmos 1331 Rocket 4.3 00:33:03 10° SW 00:38:15 68° NW 00:43:32 10° NNE
Cosmos 2278 Rocket 2.7 00:33:23 10° NW 00:38:48 47° WSW 00:42:02 23° S
Cosmos 2237 4.2 00:38:05 11° SSW 00:43:39 80° SE 00:49:24 10° NE
Cosmos 1758 Rocket 3.5 00:40:01 10° NNW 00:44:22 82° WSW 00:46:32 29° S
Mayak 0.2 00:41:00 10° NE 00:44:31 25° E 00:46:00 21° SE
Meteor 1-4 Rocket 2.8 00:43:41 33° SSE 00:45:08 60° ESE 00:48:55 10° NNE
Cosmos 1455 Rocket 4.1 00:42:56 11° SW 00:47:01 44° WNW 00:51:20 10° N
Cosmos 2181 Rocket 4.3 00:41:05 10° NNW 00:47:28 64° W 00:51:52 21° S
Meteor 1-24 Rocket 4.1 00:41:50 10° NNW 00:47:29 60° ENE 00:51:24 21° SE
Cosmos 2322 Rocket 3.2 00:45:16 10° WSW 00:50:48 48° NW 00:56:20 10° NE
Cosmos 1437 Rocket 3.4 00:49:15 17° SW 00:52:10 53° WNW 00:56:05 10° N
BREEZE-M DEB (TANK) 4.1 00:42:33 10° WSW 00:52:16 30° S 00:53:57 25° SSE
Cosmos 1844 Rocket 4.4 00:49:55 10° NW 00:54:01 21° WSW 00:57:27 12° SW
Meteor 1-15 Rocket 4.4 00:54:43 24° S 00:58:20 71° ESE 01:04:15 10° NNE
Terra 4.0 00:55:28 10° SW 00:58:33 17° W 01:01:40 10° NW
SL-16 R/B 3.3 00:54:06 10° WSW 00:59:34 45° NNW 01:05:02 10° NE
CZ-4B R/B 3.4 00:55:50 10° NNE 01:00:39 81° WNW 01:03:46 22° SSW
ALOS 2 2.8 00:58:48 29° S 01:00:56 63° WSW 01:05:20 10° NNW
Cosmos 2228 3.9 00:59:07 26° SE 01:00:57 39° E 01:05:04 10° NNE
ATLAS 2AS CENTAUR R/B 3.1 00:54:18 10° SW 01:02:21 84° SSE 01:10:32 10° ENE
USA 229 DEB 4.1 00:57:31 10° WNW 01:04:30 69° N 01:11:42 10° E
USA 229 4.1 00:57:38 10° WNW 01:04:37 69° N 01:11:48 10° E
Cosmos 2322 3.9 00:59:44 10° SW 01:05:25 72° NW 01:11:09 10° NE
ATLAS CENTAUR R/B 3.8 00:51:18 10° WNW 01:05:39 54° SW 01:09:11 23° SSE
Meteor 2-9 Rocket 4.3 01:02:00 20° SSW 01:06:09 79° WNW 01:11:51 10° NNE
Cosmos 1340 Rocket 2.7 01:04:44 10° NNW 01:08:41 77° WSW 01:10:15 35° S
Cosmos 1709 Rocket 4.1 01:04:07 19° SSW 01:08:41 75° WNW 01:14:59 10° NNE
NOSS 3-1 (A) 4.1 01:02:36 10° W 01:09:05 69° N 01:16:36 10° ENE
ERBS 2.4 01:06:36 10° WSW 01:09:59 50° S 01:13:21 10° E
COSMOS 2428 2.7 01:06:00 14° SW 01:11:02 88° SE 01:16:49 10° NE
NOSS 3-4 (A) 4.0 01:09:05 24° S 01:12:15 41° SE 01:18:22 10° ENE
NOSS 2-3 (E) 4.3 01:06:58 10° WSW 01:12:17 84° NNW 01:18:58 10° ENE
NOSS 3-4 (C) 4.0 01:09:13 25° S 01:12:22 40° SE 01:18:29 10° ENE
Cosmos 1184 Rocket 3.5 01:09:14 10° NNW 01:12:23 42° W 01:13:18 33° SW
Cosmos 2219 Rocket 2.2 01:10:37 22° SSW 01:14:21 69° SE 01:20:00 10° NE
SL-16 R/B 3.4 01:13:07 21° SE 01:15:21 27° ESE 01:20:02 10° NE
Cosmos 1356 Rocket 3.5 01:12:06 10° NNW 01:16:06 64° ENE 01:18:00 29° SE
CZ-2C R/B 2.6 01:11:25 10° NNE 01:16:46 81° ESE 01:20:00 25° SSW
Cosmos 1777 Rocket 4.2 01:12:39 10° NW 01:17:51 61° WSW 01:20:33 28° S
OPS 6432 4.2 01:20:18 50° SSE 01:20:29 51° SE 01:23:30 10° ENE
Cosmos 1707 3.2 01:17:16 10° NNW 01:21:03 50° W 01:22:30 32° SSW
CENTAUR R/B 3.3 01:13:58 10° WNW 01:21:10 49° SW 01:26:16 22° SSE
Cosmos 489 Rocket 4.4 01:16:04 10° NNW 01:22:20 89° ENE 01:26:41 21° SSE
ATLAS CENTAUR R/B 1.4 01:19:30 10° WNW 01:23:02 45° SW 01:23:48 38° S
Cosmos 1953 Rocket 4.4 01:20:35 10° NNW 01:24:50 42° W 01:26:58 25° SSW
Cosmos 2333 Rocket 2.2 01:21:34 23° SSW 01:25:06 68° ESE 01:30:44 10° NE
Cosmos 389 Rocket 3.3 01:24:15 32° SE 01:25:20 40° E 01:28:49 10° NNE
Cosmos 2360 Rocket 2.9 01:21:01 10° WSW 01:26:33 53° NW 01:32:05 10° NE
GEOS 3 Rocket 3.9 01:24:12 26° SSE 01:26:57 51° SW 01:32:09 10° WNW
Meteor 2-8 Rocket 4.5 01:21:07 10° NNW 01:27:18 79° WSW 01:31:01 26° S
Cosmos 1980 Rocket 4.3 01:24:06 10° WNW 01:28:59 29° NNW 01:33:52 10° NE
H-2A R/B 4.5 01:28:56 10° WSW 01:30:51 13° W 01:32:48 10° NW
USA 215 4.0 01:29:52 24° S 01:32:31 32° SW 01:38:19 10° WNW
Cosmos 1726 Rocket 3.5 01:30:32 30° SSW 01:32:42 89° NW 01:37:12 10° NNE
Cosmos 1674 3.7 01:29:02 10° N 01:32:45 41° ENE 01:34:53 22° SE
Cosmos 2154 Rocket 4.3 01:31:10 24° SSE 01:34:51 56° E 01:40:54 10° NNE
Cosmos 1689 Rocket 2.4 01:34:13 38° SE 01:35:13 64° ENE 01:38:21 10° N
Cosmos 2333 4.3 01:31:08 12° SW 01:36:22 76° NW 01:42:02 10° NE
Cosmos 1378 4.0 01:35:18 10° NNW 01:38:49 39° W 01:40:04 29° SW
CZ-4B R/B 1.2 01:39:01 43° SSE 01:39:56 79° ENE 01:43:06 10° NNW
NOSS 3-1 (C) 4.1 01:33:37 10° WNW 01:40:14 69° N 01:47:53 10° E
Lacrosse 5 2.0 01:39:36 10° WSW 01:44:32 52° SSE 01:49:28 10° E
Cosmos 1943 Rocket 2.6 01:39:45 10° NW 01:45:15 60° NE 01:50:43 10° ESE
Spot 2 4.4 01:41:26 10° NNE 01:45:33 54° ESE 01:47:25 31° SSE
Cosmos 2369 Rocket 2.3 01:44:01 10° NW 01:49:48 83° NE 01:54:47 14° SE
Cosmos 2237 Rocket 2.1 01:50:19 24° SSW 01:53:47 75° SE 01:59:27 10° NE
Cosmos 2344 4.3 01:46:36 10° WNW 01:55:53 83° SSW 02:08:40 10° SE
Cosmos 1606 Rocket 4.1 01:54:19 24° SW 01:56:51 53° WNW 02:01:15 10° N
CZ-4C R/B 3.6 01:55:45 35° SSW 01:56:53 48° W 02:00:31 10° NNW
COSMOS 2455 3.5 01:53:26 10° NW 01:58:54 36° WSW 02:01:28 25° SSW
Cosmos 1980 3.7 01:55:11 22° SSW 01:58:57 83° SE 02:04:42 10° NE
Landsat 5 3.5 01:59:23 33° S 02:01:09 68° WSW 02:05:28 10° NNW
Cosmos 1992 Rocket 4.3 01:58:20 18° SW 02:02:13 66° NW 02:07:28 10° NNE
Aureole 2 Rocket 3.7 01:59:58 16° WSW 02:02:17 35° NW 02:05:15 10° NNE
In-Cosmos 22 4.3 01:58:30 10° NNW 02:03:42 59° W 02:06:30 27° SSW
SL-16 R/B 3.7 02:00:24 10° ESE 02:06:11 41° NE 02:11:56 10° NNW
Cosmos 1408 Rocket 4.4 02:02:04 10° N 02:06:21 45° ENE 02:09:32 16° SE
SL-24 R/B 4.3 02:06:06 31° SSW 02:07:57 57° WSW 02:12:18 10° NNW
CZ-3A R/B 4.3 01:46:39 10° WNW 02:08:01 59° SSW 02:14:09 10° SE
Cosmos 1271 Rocket 2.9 02:07:02 31° SW 02:08:42 63° WNW 02:12:29 10° NNE
SL-08 R/B 4.5 02:04:21 10° SE 02:08:46 41° ENE 02:13:16 10° N
RESURS DK-1 2.5 02:08:02 33° SSW 02:09:42 60° SE 02:13:51 10° NE
Cosmos 1898 Rocket 3.5 02:04:22 10° NNW 02:09:43 84° WSW 02:13:22 21° SSE
Cosmos 1937 Rocket 3.6 02:05:38 10° NNW 02:10:57 82° NE 02:15:21 15° SE
Cosmos 2058 Rocket 3.4 02:10:20 26° SW 02:12:41 57° WNW 02:17:04 10° N
SAR-Lupe-2 3.7 02:11:38 37° SSW 02:12:48 60° WSW 02:16:24 10° NNW
SL-8 Rocket 4.5 02:09:16 20° SSE 02:13:24 52° E 02:19:25 10° NNE
Cosmos 1818 3.6 02:12:47 13° WSW 02:17:42 88° NNW 02:23:12 10° ENE
Mayak -0.9 02:16:23 10° NNE 02:20:30 59° WNW 02:22:40 26° SW
Cosmos 1470 4.2 02:19:16 18° SE 02:21:16 29° E 02:24:39 10° NNE
Cosmos 2278 Rocket 4.3 02:19:28 10° WNW 02:21:35 12° W 02:23:43 10° WSW
Cosmos 2184 Rocket 4.4 02:17:35 20° SW 02:21:51 57° WNW 02:28:01 10° N
Meteor 1-22 Rocket 4.4 02:18:25 25° SSW 02:22:14 87° ESE 02:28:21 10° NNE
Cosmos 2150 Rocket 3.9 02:18:42 10° NNW 02:23:54 89° SW 02:28:01 16° SSE
Meteor 2-15 4.4 02:18:38 10° NNW 02:24:49 82° WSW 02:28:55 22° S
Cosmos 1626 4.1 02:23:39 10° N 02:26:53 26° ENE 02:30:06 10° ESE
Cosmos 1953 2.9 02:26:38 26° SSE 02:28:31 49° E 02:32:23 10° NNE
Cosmos 2263 4.1 02:24:49 10° NW 02:30:28 78° SW 02:35:25 14° SSE
Cosmos 2341 Rocket 4.0 02:27:40 24° S 02:31:43 88° ESE 02:38:02 10° NNE
Iridium 4 Rocket 3.2 02:31:12 28° SSW 02:33:35 68° W 02:37:58 10° N
Cosmos 2298 Rocket 4.0 02:28:18 10° NW 02:33:39 74° WSW 02:37:31 19° SSE
NOSS 2-2 (C) 4.4 02:32:55 28° S 02:34:39 40° SE 02:39:31 10° ENE
NOSS 0 Rocket 4.1 02:30:20 14° SW 02:35:47 72° NW 02:42:04 10° NE
Cosmos 2322 Rocket 4.3 02:31:10 10° WNW 02:36:06 29° N 02:41:02 10° NE
Cosmos 990 Rocket 3.9 02:32:29 10° NW 02:37:47 79° WSW 02:41:53 17° SSE
Cosmos 2228 4.0 02:35:59 20° SW 02:38:33 40° WNW 02:42:45 10° N
Cosmos 1758 3.5 02:38:37 29° S 02:40:39 71° E 02:44:46 10° NNE
Cosmos 1805 3.2 02:42:29 31° SSW 02:44:20 85° WNW 02:48:18 10° NNE
SL-16 R/B 4.3 02:40:04 10° WNW 02:44:59 28° N 02:49:53 10° NE
Cosmos 1339 Rocket 4.4 02:38:52 10° NNW 02:45:01 85° W 02:49:40 19° S
NOSS 2 (A) 4.0 02:42:33 10° WNW 02:45:06 80° NNE 02:47:26 10° ESE
ERBS 2.7 02:43:03 10° W 02:46:20 40° SSW 02:49:36 10° SE
Cosmos 1766 3.7 02:44:28 27° SW 02:46:27 54° WNW 02:50:26 10° N
Cosmos 1500 Rocket 4.5 02:44:34 10° N 02:48:51 47° ENE 02:53:07 10° SE
Cosmos 1603 4.3 02:46:31 21° S 02:49:52 44° ESE 02:55:10 10° NE
ATLAS 2AS CENTAUR R/B 3.4 02:45:44 10° W 02:53:53 70° N 03:01:57 10° ENE
Cosmos 1356 3.9 02:51:15 10° NNW 02:54:37 44° W 02:55:49 31° SSW
USA 229 DEB 3.7 02:48:45 10° WNW 02:55:50 81° SSW 03:03:05 10° SE
COSMOS 2428 4.0 02:50:33 10° W 02:55:56 39° NNW 03:01:18 10° NE
USA 229 3.7 02:48:52 10° WNW 02:55:56 81° SSW 03:03:11 10° SE
CZ-2C R/B 4.1 02:52:08 10° N 02:56:40 29° NW 03:01:16 10° WSW
Cosmos 1544 3.6 02:56:16 26° SW 02:58:01 50° WNW 03:01:40 10° N
Cosmos 2219 Rocket 3.2 02:53:14 10° WSW 02:58:41 45° NNW 03:04:07 10° NE
SL-16 R/B 2.2 02:55:00 21° SW 02:58:56 89° NW 03:04:39 10° NE
Okean 3 Rocket 4.2 02:55:08 10° NNW 02:59:25 43° W 03:01:40 24° SSW
Cosmos 1727 Rocket 4.0 02:53:27 10° NNW 02:59:37 72° W 03:04:11 19° S
Cosmos 1076 Rocket 3.9 02:55:28 10° NNW 02:59:39 49° W 03:01:48 26° SSW
Cosmos 389 Rocket 4.0 02:58:15 18° WSW 03:00:18 30° WNW 03:03:36 10° N
NOSS 2-2 (E) 4.0 02:57:50 25° SSW 03:00:19 58° SE 03:05:45 10° ENE
NOSS 3-1 (A) 4.0 02:53:48 10° WNW 03:00:40 78° NNE 03:08:33 10° ESE
NOSS 3-4 (A) 3.6 02:56:29 11° WSW 03:02:44 89° NW 03:09:35 10° ENE
NOSS 3-4 (C) 3.6 02:56:37 11° WSW 03:02:50 90° NW 03:09:41 10° ENE
H-2A R/B 2.2 03:01:01 10° NNE 03:04:53 85° ESE 03:06:58 26° SSW
Helios 1A Rocket 3.8 03:01:23 10° NNE 03:05:17 41° E 03:08:01 18° SSE
Cosmos-2242 3.7 03:02:27 18° SSE 03:05:25 49° E 03:09:42 10° NNE
Cosmos 2366 rocket 4.1 03:02:38 20° S 03:07:14 82° E 03:13:39 10° NNE
Cosmos 1689 Rocket 4.2 03:07:00 15° W 03:07:29 16° W 03:09:32 10° NW
Cosmos 1674 3.8 03:04:51 10° NNW 03:08:18 31° W 03:09:46 23° SW
Cosmos 2333 Rocket 3.1 03:04:15 10° WSW 03:09:43 45° NNW 03:15:10 10° NE
CENTAUR R/B 4.4 03:05:34 10° WNW 03:10:31 18° WSW 03:13:23 15° SW
Cosmos 2360 Rocket 4.1 03:06:48 10° WNW 03:11:42 29° NNW 03:16:37 10° NE
Cosmos 2208 Rocket 4.2 03:09:26 22° SSW 03:13:01 72° ESE 03:18:29 10° NE
CZ-4B R/B 3.5 03:12:35 13° W 03:13:03 13° W 03:14:41 10° WNW
Cosmos 1980 Rocket 4.3 03:09:38 10° NW 03:14:33 30° NNE 03:19:28 10° ENE
Cosmos 2084 Rocket 3.5 03:15:19 25° SSW 03:17:23 52° SE 03:21:12 10° ENE
COBE Rocket 4.3 03:12:47 10° NNE 03:17:56 63° E 03:21:46 17° S
Cosmos 1812 Rocket 4.3 03:15:39 20° SW 03:18:17 43° WNW 03:22:29 10° N
NOSS 5 (C) 4.3 03:16:29 19° WSW 03:18:34 75° NNW 03:21:49 10° ENE
PSLV R/B 3.8 03:18:16 10° NNE 03:22:59 72° WNW 03:26:03 21° SSW
Meteor 2-21 Rocket 4.5 03:20:32 19° SSW 03:25:08 81° WNW 03:31:25 10° NNE
Lacrosse 5 1.9 03:22:11 10° W 03:27:12 62° S 03:32:13 10° ESE
Cosmos 371 Rocket 3.8 03:24:53 18° S 03:28:16 51° ESE 03:33:00 10° NE
Cosmos 1943 Rocket 2.5 03:23:43 10° NW 03:28:56 44° WSW 03:33:27 14° S
NOSS 3-1 (C) 3.9 03:24:37 10° WNW 03:31:36 86° SSW 03:39:36 10° ESE
Cosmos 1697 Rocket 4.4 03:26:40 10° NW 03:31:56 37° NNE 03:37:11 10° E
Cosmos 2221 4.5 03:29:44 10° SE 03:33:16 25° E 03:36:47 10° NNE
Cosmos 2369 Rocket 3.1 03:28:28 10° NW 03:33:22 30° WSW 03:36:31 18° SSW
Cosmos 1766 Rocket 4.3 03:30:01 10° NNW 03:34:07 38° W 03:36:36 20° SSW
CBERS-1 4.4 03:29:22 10° NNE 03:34:28 59° ESE 03:38:48 14° S
Cosmos 1842 Rocket 4.4 03:33:45 12° SSE 03:37:34 46° E 03:41:45 10° NNE
SL-14 R/B 3.9 03:34:02 10° NNW 03:37:52 41° W 03:40:12 20° SSW
Cosmos 2237 Rocket 3.2 03:32:56 10° WSW 03:38:18 42° NNW 03:43:41 10° NE
Meteor 2-16 Rocket 4.5 03:35:18 17° SSW 03:40:05 77° WNW 03:46:14 10° NNE
IRS-P3 4.3 03:35:01 10° NNE 03:40:23 71° ESE 03:44:54 15° S
Cosmos 1656 Rocket 3.7 03:35:14 10° NW 03:40:54 67° WSW 03:46:32 10° SSE
Cosmos 1400 Rocket 3.4 03:37:19 10° NNW 03:41:12 57° ENE 03:45:05 10° SSE
Cosmos 1743 Rocket 3.7 03:37:07 10° NNW 03:41:33 59° W 03:45:02 16° S
Cosmos 2058 2.8 03:38:49 10° NNW 03:42:57 77° W 03:46:40 12° S
ADEOS Rocket 2.8 03:37:50 10° NNE 03:43:31 77° ESE 03:48:10 15° SSW
Cosmos 1408 Rocket 4.4 03:40:06 10° NNW 03:44:04 34° W 03:46:36 19° SW
Resurs 1-4 Rocket 2.9 03:39:57 10° NNE 03:45:02 46° E 03:50:05 10° S
Cosmos 372 Rocket 3.9 03:41:27 10° NW 03:46:37 75° WSW 03:51:47 10° SSE
SL-08 R/B 3.7 03:43:12 17° SSW 03:46:37 46° W 03:51:15 10° NNW
RESURS DK-1 3.5 03:44:03 10° WSW 03:48:00 39° NNW 03:51:57 10° NE
Cosmos 1242 Rocket 3.6 03:45:16 12° SSE 03:48:24 39° E 03:51:45 10° NNE
CZ-2D R/B 2.9 03:43:44 10° NNE 03:49:00 49° E 03:54:11 10° S
SL-16 R/B 2.6 03:43:26 10° S 03:49:39 65° WSW 03:55:51 10° NNW
Cosmos 2123 Rocket 4.1 03:45:38 10° NNW 03:52:00 89° ENE 03:58:16 10° SSE
Cosmos 1943 3.5 03:48:57 16° SSW 03:53:30 61° ESE 03:59:08 10° NE
Mayak 1.1 03:53:03 10° NNW 03:55:26 15° NW 03:57:48 10° W
Sich 1 4.0 03:51:10 10° N 03:55:31 49° ENE 03:59:47 10° SE
Cosmos 1733 3.9 03:53:32 18° SW 03:56:03 42° WNW 03:59:44 10° N
Cosmos 1470 3.4 03:54:39 18° SW 03:57:15 43° WNW 04:01:01 10° N
Cosmos 1570 Rocket 4.3 03:53:10 15° SW 03:57:28 63° NW 04:02:42 10° NNE
Cosmos 1763 Rocket 3.8 03:53:58 14° S 03:58:14 58° ESE 04:03:14 10° NE
Cosmos 1703 3.4 03:55:48 10° NNW 03:59:40 58° W 04:03:10 12° S
Cosmos 2218 Rocket 4.5 03:55:55 15° SW 04:01:09 51° WNW 04:07:24 10° N
Cosmos 2151 3.2 03:57:30 10° NNW 04:01:37 52° W 04:05:16 13° S
Cosmos 1818 4.4 03:56:23 10° W 04:01:44 53° N 04:07:06 10° ENE
Cosmos 1125 Rocket 3.6 03:56:49 10° NW 04:01:55 55° WSW 04:07:00 10° S
Cosmos 1626 2.5 03:58:50 10° NNW 04:02:28 48° W 04:05:25 14° SSW
MOZ.5/SAFIR/RUBIN 5/SL-8 3.8 03:59:31 10° SSE 04:04:12 87° WSW 04:08:58 10° NNW
NOSS 2-2 (D) 3.9 04:00:33 13° WSW 04:04:38 88° NNW 04:10:24 10° ENE
Cosmos 1821 Rocket 4.1 03:58:44 10° S 04:05:01 78° E 04:11:14 10° NNE
Cosmos 1953 3.6 04:02:22 14° WSW 04:05:10 28° WNW 04:08:42 10° N
UNK 4.0 04:03:24 12° S 04:07:32 48° W 04:12:00 10° NNW
Cosmos 2369 4.3 04:03:02 10° NW 04:08:42 63° NE 04:14:19 10° SE
Meteor 1-16 Rocket 4.4 04:06:14 13° SSW 04:11:38 82° WNW 04:17:30 10° NNE
Cosmos 468 Rocket 4.0 04:11:01 14° SW 04:15:27 78° NW 04:20:40 10° NNE
BREEZE-M DEB (TANK) 4.3 04:15:48 11° S 04:17:16 13° SSE 04:19:34 10° SE
MOS 1 Rocket 3.4 04:16:47 10° NNE 04:21:04 64° ESE 04:25:23 10° S
Cosmos 1633 Rocket 3.5 04:16:44 10° N 04:21:08 66° ENE 04:25:29 10° SSE
Cosmos 2322 Rocket 4.2 04:16:39 10° NW 04:21:44 31° NNE 04:26:47 10° E
ERBS 3.9 04:20:02 10° W 04:22:22 17° SW 04:24:40 10° S
USA 32 4.4 04:17:45 10° NNW 04:22:50 50° W 04:27:53 10° SSW
Cosmos 1934 Rocket 4.1 04:17:17 10° S 04:23:20 81° E 04:29:27 10° NNE
NOSS 2-2 (C) 4.1 04:20:30 10° WSW 04:25:01 78° NNW 04:30:55 10° ENE
Cosmos 1726 4.0 04:22:12 10° SSE 04:25:25 29° E 04:28:41 10° NNE
Cosmos 1500 Rocket 4.4 04:22:39 10° NNW 04:26:36 33° W 04:30:21 11° SSW
SL-16 R/B 4.1 04:25:31 10° NW 04:30:38 33° NNE 04:35:45 10° E
Cosmos 1605 Rocket 4.3 04:27:25 10° S 04:33:47 72° E 04:40:12 10° NNE
Cosmos 1603 4.0 04:28:24 10° WSW 04:33:55 62° NW 04:39:30 10° NE
Cosmos 1814 Rocket 4.1 04:29:44 12° SW 04:34:45 78° NW 04:40:02 10° NNE
Cosmos 1656 4.1 04:31:36 10° NW 04:37:19 72° NE 04:43:01 10° SE
ARIANE 5 R/B 2.7 04:32:08 10° NNE 04:37:25 85° ESE 04:42:39 10° SSW
USA 161 1.1 04:35:39 10° SSE 04:37:41 61° ENE 04:39:37 10° N
ADEOS II 3.8 04:34:22 10° NNE 04:39:03 31° E 04:43:42 10° SSE
H-2A R/B 4.2 04:37:14 10° N 04:40:02 19° NW 04:42:49 10° W
Helios 1A Rocket 3.8 04:36:45 10° N 04:40:31 37° WNW 04:44:18 10° SW
Cosmos 1315 Rocket 2.8 04:38:11 10° NNW 04:42:18 74° WSW 04:46:20 10° S
Meteor 2-1 Rocket 4.2 04:36:43 10° SSW 04:42:19 87° WNW 04:47:54 10° NNE
Cosmos 1908 3.3 04:38:45 10° S 04:42:35 77° ESE 04:46:27 10° NNE
Cosmos-2242 4.1 04:39:19 10° SW 04:43:13 32° WNW 04:47:13 10° N
NPP 4.0 04:37:59 10° NNE 04:43:15 54° WNW 04:48:30 10° SW
SL-16 R/B 3.4 04:38:25 10° W 04:43:42 38° NNW 04:48:59 10° NE
Cosmos 2219 Rocket 4.0 04:39:05 10° WNW 04:43:56 28° N 04:48:48 10° NE
Cosmos 841 Rocket 3.5 04:39:22 10° SSW 04:44:35 90° W 04:49:48 10° NNE
Cosmos 332 Rocket 4.4 04:40:05 10° SW 04:44:53 51° NW 04:49:44 10° NNE
ATLAS 2AS CENTAUR R/B 3.3 04:37:26 10° WNW 04:45:40 78° NNE 04:53:36 10° ESE
USA 229 DEB 4.3 04:39:54 10° WNW 04:46:12 35° SW 04:52:37 10° S
USA 229 4.3 04:40:01 10° WNW 04:46:19 36° SW 04:52:44 10° S
NOSS 2-2 (E) 4.4 04:46:18 10° W 04:51:01 69° NNW 04:57:13 10° ENE
NOSS 3-1 (A) 4.0 04:44:42 10° WNW 04:51:42 60° SW 04:59:38 10° SE
Cosmos 1666 Rocket 3.6 04:48:01 10° NNW 04:52:24 64° W 04:56:47 10° S
NOSS 3-4 (A) 4.1 04:47:35 10° W 04:54:06 67° N 05:01:04 10° E
NOSS 3-4 (C) 4.1 04:47:41 10° W 04:54:12 67° N 05:01:10 10° E
Cosmos 1805 Rocket 4.0 04:50:22 10° NNW 04:54:39 45° W 04:58:53 10° SSW
IRS-1C 4.4 04:49:32 10° NNE 04:54:47 56° WNW 05:00:00 10° SW
Cosmos 2333 Rocket 4.0 04:50:23 10° WNW 04:55:17 29° N 05:00:10 10° NE
Cosmos 2084 Rocket 3.5 04:52:52 10° W 04:56:52 67° NNW 05:00:44 10° ENE
Cosmos 2360 Rocket 4.2 04:52:20 10° NW 04:57:17 30° NNE 05:02:13 10° ENE
IRS-1D 3.6 04:53:02 10° NNE 04:58:04 67° WNW 05:03:12 10° SSW
ADEOS 3.6 04:52:51 10° NNE 04:58:07 82° WNW 05:03:21 10° SSW
Cosmos 1300 3.9 04:54:37 10° SSE 04:58:16 44° E 05:01:57 10° NNE
AQUA 4.5 04:54:37 10° N 04:59:09 43° WNW 05:03:38 10° SW
Cosmos 2278 3.7 04:53:43 10° NW 04:59:25 81° SW 05:05:04 10° SSE
Cosmos 1980 Rocket 3.0 04:54:06 10° NW 04:59:39 57° NE 05:05:11 10° ESE
Cosmos 1933 Rocket 3.9 04:56:43 10° NNW 05:01:14 75° ENE 05:05:42 10° SSE
Okean O Rocket 3.7 04:58:07 10° NNE 05:02:00 28° E 05:05:49 10° SSE
Spot 4 Rocket 4.3 05:00:57 10° NNE 05:06:03 60° WNW 05:11:08 10° SW
